Stations météo

réclame
Mon MeteoGroup
Thorney Island, Grande-Bretagne (3872): Température de l'air & dewpoint: 14.06.2018 22:00:00 - 20.06.2018 22:00:00 (BST)Thorney Island, Grande-Bretagne (3872): Température de l'air -20cm & Température de l'air -100cm: 14.06.2018 22:00:00 - 20.06.2018 22:00:00 (BST)Thorney Island, Grande-Bretagne (3872): Vitesse du vent & gusts: 14.06.2018 22:00:00 - 20.06.2018 22:00:00 (BST)Thorney Island, Grande-Bretagne (3872): Direction du vent: 14.06.2018 22:00:00 - 20.06.2018 22:00:00 (BST)Thorney Island, Grande-Bretagne (3872): reduced air pressure: 14.06.2018 22:00:00 - 20.06.2018 22:00:00 (BST)Thorney Island, Grande-Bretagne (3872): visibility: 14.06.2018 22:00:00 - 20.06.2018 22:00:00 (BST)Thorney Island, Grande-Bretagne (3872): Quantités de précipitations: 14.06.2018 22:00:00 - 20.06.2018 22:00:00 (BST)
Date & Time tt [°C] td [°C] tt -20cm [°C] tt -100cm [°C] ff [km/h] ff [knt] fx [km/h] fx [knt] dd ppp [hPa] vv [km] rr [mm]
20.06.2018 22:00:00 - - - - - - - - - - - -
20.06.2018 21:00:00 17,7 15,5 - - 13 7 - - W 1019,6 35 0,0
20.06.2018 20:00:00 18,4 15,4 - - 18 10 - - W 1019,6 45 0,0
20.06.2018 19:00:00 19,1 15,4 - - 21 11 - - W 1019,7 40 0,0
20.06.2018 18:00:00 19,3 15,8 - - 18 10 - - W 1020,0 29 0,0
20.06.2018 17:00:00 19,8 15,9 - - 18 10 - - WSW 1020,4 45 0,0
20.06.2018 16:00:00 18,7 15,4 - - 22 12 - - SW 1021,0 35 0,0
20.06.2018 15:00:00 19,3 15,4 - - 21 11 - - W 1021,2 40 0,0
20.06.2018 14:00:00 18,8 15,2 - - 22 12 - - W 1021,3 40 0,0
20.06.2018 13:00:00 18,5 15,6 - - 16 9 - - W 1021,6 50 0,0
20.06.2018 12:00:00 17,6 15,3 - - 15 8 - - W 1021,8 45 0,0
20.06.2018 11:00:00 16,5 14,7 - - 18 10 - - WSW 1022,0 50 0,0
20.06.2018 10:00:00 15,7 14,4 18,7 14,9 18 10 - - WSW 1022,2 45 0,0
20.06.2018 09:00:00 14,8 14,1 - - 22 12 - - W 1022,4 11 0,0
20.06.2018 08:00:00 14,9 14,0 - - 18 10 - - W 1022,4 30 0,0
20.06.2018 07:00:00 14,7 14,1 - - 21 11 - - W 1022,1 35 0,0
20.06.2018 06:00:00 14,9 14,6 - - 18 10 - - WSW 1021,9 16 0,0
20.06.2018 05:00:00 14,8 14,6 - - 13 7 - - WSW 1022,1 5 0,0
20.06.2018 04:00:00 14,4 14,0 - - 16 9 - - WSW 1022,3 5 0,0
20.06.2018 03:00:00 14,9 14,4 - - 15 8 - - SW 1022,4 4,2 0,0
20.06.2018 02:00:00 15,1 14,6 - - 9 5 - - W 1022,7 12 0,0
20.06.2018 01:00:00 15,4 14,8 - - 8 4 - - WSW 1023,1 17 0,0
20.06.2018 00:00:00 14,6 13,9 - - 9 5 - - SW 1023,3 19 0,0
19.06.2018 23:00:00 15,1 14,1 - - 5 3 - - WSW 1023,6 28 0,0
19.06.2018 22:00:00 15,8 14,6 - - 11 6 - - WSW 1023,7 45 0,0
19.06.2018 21:00:00 16,8 14,6 - - 16 9 - - W 1023,5 45 0,0
19.06.2018 20:00:00 17,8 15,1 - - 21 11 - - W 1023,7 45 0,0
19.06.2018 19:00:00 18,0 15,6 - - 21 11 - - WSW 1023,8 50 0,0
19.06.2018 18:00:00 19,8 16,5 - - 22 12 - - WSW 1023,8 45 0,0
19.06.2018 17:00:00 20,1 16,4 - - 24 13 - - SW 1023,9 40 0,0
19.06.2018 16:00:00 20,6 16,6 - - 22 12 - - SW 1024,1 27 0,0
19.06.2018 15:00:00 20,2 17,1 - - 22 12 - - SW 1024,2 50 0,0
19.06.2018 14:00:00 19,8 16,9 - - 24 13 - - SSW 1024,2 35 0,0
19.06.2018 13:00:00 20,9 16,9 - - 18 10 - - WSW 1024,3 50 0,0
19.06.2018 12:00:00 19,6 16,3 - - 18 10 - - WSW 1024,4 35 0,0
19.06.2018 11:00:00 20,1 16,5 - - 21 11 - - WSW 1024,1 29 0,0
19.06.2018 10:00:00 18,7 15,6 18,2 14,9 18 10 - - W 1024,3 35 0,0
19.06.2018 09:00:00 19,4 15,9 - - 16 9 - - W 1024,2 40 0,0
19.06.2018 08:00:00 17,6 15,7 - - 21 11 - - W 1023,8 25 0,0
19.06.2018 07:00:00 16,9 15,4 - - 18 10 - - W 1023,5 12 0,0
19.06.2018 06:00:00 16,6 15,3 - - 18 10 - - W 1023,3 29 0,0
19.06.2018 05:00:00 16,3 15,1 - - 22 12 - - W 1022,8 29 0,0
19.06.2018 04:00:00 16,0 15,0 - - 21 11 - - W 1022,6 35 0,0
19.06.2018 03:00:00 15,8 15,1 - - 22 12 - - W 1022,6 8 0,0
19.06.2018 02:00:00 16,0 15,2 - - 21 11 - - W 1022,4 15 0,0
19.06.2018 01:00:00 16,2 15,2 - - 22 12 - - W 1022,3 14 -
19.06.2018 00:00:00 16,2 15,2 - - 24 13 - - W 1022,4 10 0,0
18.06.2018 23:00:00 16,3 15,2 - - 26 14 - - W 1022,5 13 0,0
18.06.2018 22:00:00 16,0 15,1 - - 22 12 - - W 1022,4 11 0,0
18.06.2018 21:00:00 15,9 14,9 - - 28 15 - - W 1021,9 12 0,0
18.06.2018 20:00:00 15,9 14,7 - - 29 16 - - W 1021,8 12 0,0
18.06.2018 19:00:00 16,1 14,2 - - 31 17 - - W 1021,7 18 0,0
18.06.2018 18:00:00 17,1 14,2 - - 34 18 46 25 W 1021,5 29 0,0
18.06.2018 17:00:00 19,3 13,9 - - 28 15 - - W 1021,3 19 0,0
18.06.2018 16:00:00 19,5 13,3 - - 31 17 - - WSW 1021,0 17 0,0
18.06.2018 15:00:00 20,0 13,7 - - 26 14 - - WSW 1021,0 28 0,0
18.06.2018 14:00:00 20,1 14,2 - - 26 14 - - WSW 1020,9 22 0,0
18.06.2018 13:00:00 20,4 12,6 - - 22 12 - - W 1020,8 35 0,0
18.06.2018 12:00:00 19,3 13,1 - - 18 10 - - W 1020,7 30 0,0
18.06.2018 11:00:00 17,7 13,4 - - 15 8 - - W 1020,3 45 0,0
18.06.2018 10:00:00 16,6 13,5 17,7 14,9 18 10 - - W 1020,3 45 0,0
18.06.2018 09:00:00 15,6 12,9 - - 16 9 - - W 1020,2 40 0,0
18.06.2018 08:00:00 15,4 12,3 - - 16 9 - - WNW 1019,6 45 0,0
18.06.2018 07:00:00 15,2 12,3 - - 22 12 - - W 1018,8 50 0,0
18.06.2018 06:00:00 14,9 13,5 - - 13 7 - - W 1018,3 50 0,0
18.06.2018 05:00:00 14,8 13,8 - - 21 11 - - W 1018,2 4,9 0,0
18.06.2018 04:00:00 15,5 13,8 - - 26 14 - - W 1017,9 35 0,0
18.06.2018 03:00:00 15,5 14,9 - - 18 10 - - W 1017,6 12 0,0
18.06.2018 02:00:00 15,2 14,6 - - 21 11 - - W 1017,6 9 0,0
18.06.2018 01:00:00 15,0 14,5 - - 21 11 - - W 1017,9 13 0,0
18.06.2018 00:00:00 14,9 14,4 - - 21 11 - - WSW 1017,9 8 0,0
17.06.2018 23:00:00 14,9 14,3 - - 18 10 - - WSW 1018,0 8 0,0
17.06.2018 22:00:00 14,9 14,3 - - 18 10 - - WSW 1017,8 12 0,0
17.06.2018 21:00:00 14,8 14,1 - - 24 13 - - WSW 1017,5 17 0,0
17.06.2018 20:00:00 14,9 14,0 - - 28 15 - - WSW 1017,7 26 0,0
17.06.2018 19:00:00 14,7 13,7 - - 34 18 - - WSW 1017,7 12 0,0
17.06.2018 18:00:00 14,8 13,5 - - 28 15 - - SW 1017,6 19 0,0
17.06.2018 17:00:00 14,5 13,0 - - 29 16 - - WSW 1018,0 14 0,0
17.06.2018 16:00:00 15,0 12,0 - - 34 18 46 25 WSW 1018,1 29 0,0
17.06.2018 15:00:00 16,7 11,9 - - 29 16 - - WSW 1018,0 35 0,0
17.06.2018 14:00:00 17,2 12,4 - - 28 15 - - WSW 1017,8 24 0,0
17.06.2018 13:00:00 15,7 12,0 - - 29 16 - - WSW 1018,0 21 0,0
17.06.2018 12:00:00 17,0 11,4 - - 29 16 - - WSW 1017,9 30 0,0
17.06.2018 11:00:00 17,0 12,0 - - 26 14 - - WSW 1017,5 35 0,0
17.06.2018 10:00:00 16,8 11,9 17,7 14,7 24 13 - - W 1017,6 27 0,0
17.06.2018 09:00:00 16,1 12,0 - - 22 12 - - W 1017,5 22 0,0
17.06.2018 08:00:00 14,5 11,7 - - 18 10 - - W 1017,3 20 0,0
17.06.2018 07:00:00 13,4 11,6 - - 16 9 - - W 1017,0 21 0,2
17.06.2018 06:00:00 14,2 9,9 - - 24 13 - - W 1016,4 40 0,0
17.06.2018 05:00:00 14,4 10,8 - - 22 12 - - W 1016,1 35 0,0
17.06.2018 04:00:00 14,4 9,8 - - 28 15 - - W 1015,9 45 0,0
17.06.2018 03:00:00 14,5 9,9 - - 24 13 - - W 1016,1 35 0,0
17.06.2018 02:00:00 14,6 9,2 - - 24 13 - - W 1016,1 35 0,0
17.06.2018 01:00:00 14,9 11,1 - - 24 13 - - W 1016,1 28 0,0
17.06.2018 00:00:00 14,6 11,3 - - 26 14 - - W 1015,9 26 0,0
16.06.2018 23:00:00 14,8 10,2 - - 18 10 - - W 1015,6 35 0,0
16.06.2018 22:00:00 14,7 11,9 - - 18 10 - - W 1015,2 15 0,0
16.06.2018 21:00:00 14,9 11,3 - - 24 13 - - WSW 1014,7 18 0,0
16.06.2018 20:00:00 15,3 12,2 - - 29 16 48 26 WSW 1014,4 14 0,0
16.06.2018 19:00:00 16,2 12,7 - - 35 19 46 25 WSW 1014,2 15 0,0
16.06.2018 18:00:00 16,2 12,9 - - 34 18 - - WSW 1014,3 21 0,0
16.06.2018 17:00:00 16,4 13,9 - - 28 15 - - SW 1014,7 24 0,0
16.06.2018 16:00:00 15,1 13,1 - - 34 18 46 25 WSW 1014,9 7 0,0
16.06.2018 15:00:00 15,7 13,4 - - 29 16 - - SW 1014,9 25 0,0
16.06.2018 14:00:00 15,5 12,5 - - 29 16 46 25 WSW 1015,3 24 0,0
16.06.2018 13:00:00 16,6 11,7 - - 31 17 - - WSW 1015,4 35 0,0
16.06.2018 12:00:00 17,8 12,1 - - 28 15 - - SW 1015,4 28 0,0
16.06.2018 11:00:00 15,8 11,5 - - 24 13 - - WSW 1015,6 30 0,0
16.06.2018 10:00:00 16,1 11,1 18,2 14,7 26 14 - - WSW 1015,6 30 0,0
16.06.2018 09:00:00 15,1 11,3 - - 21 11 - - W 1015,6 40 0,0
16.06.2018 08:00:00 15,0 12,4 - - 16 9 - - W 1015,3 35 0,0
16.06.2018 07:00:00 14,3 12,4 - - 15 8 - - W 1015,3 27 0,0
16.06.2018 06:00:00 13,9 12,1 - - 11 6 - - W 1015,0 29 0,0
16.06.2018 05:00:00 13,9 11,8 - - 13 7 - - W 1015,1 30 0,0
16.06.2018 04:00:00 14,1 12,0 - - 13 7 - - W 1015,5 28 0,0
16.06.2018 03:00:00 14,2 12,0 - - 13 7 - - W 1015,7 28 0,0
16.06.2018 02:00:00 13,9 11,7 - - 5 3 - - WSW 1015,4 27 0,0
16.06.2018 01:00:00 14,6 12,6 - - 15 8 - - W 1016,3 23 0,0
16.06.2018 00:00:00 14,6 12,7 - - 13 7 - - W 1016,2 21 0,0
15.06.2018 23:00:00 14,5 12,3 - - 9 5 - - W 1016,2 24 0,0
15.06.2018 22:00:00 14,6 12,3 - - 13 7 - - W 1016,7 23 0,0
15.06.2018 21:00:00 15,5 11,9 - - 18 10 - - W 1016,5 30 0,0
15.06.2018 20:00:00 16,3 11,5 - - 24 13 - - W 1016,5 35 0,0
15.06.2018 19:00:00 17,0 12,0 - - 21 11 - - W 1016,3 35 0,0
15.06.2018 18:00:00 17,5 10,6 - - 26 14 - - WSW 1016,6 28 0,0
15.06.2018 17:00:00 18,7 12,0 - - 22 12 - - WSW 1017,0 30 0,0
15.06.2018 16:00:00 18,5 12,5 - - 24 13 - - SW 1017,2 21 0,0
15.06.2018 15:00:00 19,5 11,4 - - 22 12 - - WSW 1017,4 29 0,0
15.06.2018 14:00:00 18,8 13,2 - - 21 11 - - SSW 1017,3 30 0,0
15.06.2018 13:00:00 18,6 13,5 - - 21 11 - - SSW 1017,3 16 0,0
15.06.2018 12:00:00 19,0 9,9 - - 16 9 - - SW 1017,6 30 0,0
15.06.2018 11:00:00 18,5 10,6 - - 8 4 - - WSW 1017,1 25 0,0
15.06.2018 10:00:00 18,2 11,4 17,7 14,7 8 4 - - N 1017,1 35 0,0
15.06.2018 09:00:00 16,2 11,9 - - 13 7 - - NNW 1017,5 25 0,0
15.06.2018 08:00:00 14,4 11,1 - - 13 7 - - NW 1017,5 13 0,0
15.06.2018 07:00:00 12,3 10,3 - - 8 4 - - NW 1016,9 18 0,0
15.06.2018 06:00:00 10,7 9,4 - - 13 7 - - NW 1016,7 15 0,0
15.06.2018 05:00:00 10,4 9,0 - - 11 6 - - NW 1016,6 18 0,0
15.06.2018 04:00:00 10,5 8,8 - - 8 4 - - NW 1016,4 20 0,0
15.06.2018 03:00:00 11,2 9,0 - - 11 6 - - NW 1016,6 22 0,0
15.06.2018 02:00:00 11,8 9,0 - - 8 4 - - WNW 1016,5 23 0,0
15.06.2018 01:00:00 12,3 9,1 - - 8 4 - - NW 1016,6 26 0,0
15.06.2018 00:00:00 13,7 9,7 - - 8 4 - - NW 1016,6 26 0,0
14.06.2018 23:00:00 14,5 9,7 - - 11 6 - - NW 1016,3 30 0,0
14.06.2018 22:00:00 15,6 10,1 - - 11 6 - - NW 1015,9 30 0,0

tt = Température de l'air
td = dewpoint
tt -20cm = Température de l'air -20cm
tt -100cm = Température de l'air -100cm
ff = Vitesse du vent
fx = gusts
dd = Direction du vent
ppp = reduced air pressure
vv = visibility
rr = Quantités de précipitations

stations d'obs. à proximité